| time (UTC) | temp F | wind direction | speed MPH | gust MPH | rain 1hr in | rain 24hr in | rain mn in | humidity % | barometer mb |
| 20260903154206 | 83 | 157 | 1.0 | 3.0 | 0.00 | 0.04 | 0.04 | 87 | 1016.3 |
| 20260903153705 | 83 | 146 | 0.0 | 3.0 | 0.00 | 0.04 | 0.04 | 88 | 1016.4 |
| 20260903153213 | 82 | 148 | 0.0 | 3.0 | 0.00 | 0.04 | 0.04 | 88 | 1016.4 |
| 20260903152225 | 82 | 144 | 0.0 | 3.0 | 0.00 | 0.04 | 0.04 | 89 | 1016.5 |
| 20260903151142 | 81 | 155 | 0.0 | 4.0 | 0.00 | 0.04 | 0.04 | 91 | 1016.4 |
| 20260903150635 | 81 | 153 | 0.0 | 5.0 | 0.00 | 0.04 | 0.04 | 91 | 1016.4 |
| 20260903150132 | 80 | 159 | 1.0 | 5.0 | 0.00 | 0.04 | 0.04 | 92 | 1016.4 |
| 20260903145635 | 80 | 160 | 0.0 | 3.0 | 0.00 | 0.04 | 0.04 | 93 | 1016.4 |
| 20260903145136 | 80 | 173 | 0.0 | 3.0 | 0.00 | 0.04 | 0.04 | 94 | 1016.6 |
| 20260903144635 | 79 | 172 | 0.0 | 3.0 | 0.00 | 0.04 | 0.04 | 95 | 1016.7 |
| 20260903144130 | 79 | 165 | 0.0 | 2.0 | 0.00 | 0.04 | 0.04 | 96 | 1016.6 |
| 20260903143634 | 78 | 165 | 0.0 | 2.0 | 0.00 | 0.04 | 0.04 | 95 | 1016.7 |
| 20260903143134 | 78 | 190 | 0.0 | 2.0 | 0.00 | 0.04 | 0.04 | 96 | 1016.8 |
| 20260903142628 | 78 | 196 | 0.0 | 1.0 | 0.00 | 0.04 | 0.04 | 98 | 1016.9 |
| 20260903141132 | 77 | 196 | 0.0 | 0.0 | 0.00 | 0.04 | 0.04 | 97 | 1016.7 |
| 20260903140630 | 77 | 196 | 0.0 | 0.0 | 0.00 | 0.04 | 0.04 | 97 | 1016.8 |
| 20260903135129 | 76 | 196 | 0.0 | 0.0 | 0.00 | 0.04 | 0.04 | 98 | 1016.7 |
| 20260903134632 | 76 | 196 | 0.0 | 0.0 | 0.00 | 0.04 | 0.04 | 99 | 1017.0 |
| 20260903134131 | 76 | 196 | 0.0 | 0.0 | 0.00 | 0.04 | 0.04 | 99 | 1016.9 |
| 20260903133625 | 76 | 196 | 0.0 | 0.0 | 0.00 | 0.04 | 0.04 | 100 | 1017.1 |
| 20260903133123 | 76 | 196 | 0.0 | 0.0 | 0.00 | 0.04 | 0.04 | 100 | 1017.2 |
| 20260903132117 | 75 | 196 | 0.0 | 0.0 | 0.00 | 0.04 | 0.04 | 100 | 1017.4 |
| 20260903131621 | 75 | 196 | 0.0 | 0.0 | 0.00 | 0.04 | 0.04 | 100 | 1017.4 |
| 20260903131119 | 75 | 196 | 0.0 | 0.0 | 0.00 | 0.04 | 0.04 | 100 | 1017.4 |
| 20260903130112 | 76 | 196 | 0.0 | 0.0 | 0.00 | 0.04 | 0.04 | 100 | 1018.0 |
| 20260903125613 | 75 | 196 | 0.0 | 0.0 | 0.00 | 0.04 | 0.04 | 100 | 1018.1 |
| 20260903124116 | 75 | 196 | 0.0 | 0.0 | 0.00 | 0.04 | 0.04 | 100 | 1018.4 |
| 20260903123619 | 75 | 196 | 0.0 | 0.0 | 0.00 | 0.04 | 0.04 | 100 | 1018.7 |
| 20260903123108 | 75 | 196 | 0.0 | 0.0 | 0.00 | 0.04 | 0.04 | 100 | 1018.7 |
| 20260903122616 | 75 | 196 | 0.0 | 0.0 | 0.00 | 0.04 | 0.04 | 100 | 1018.8 |
| 20260903122108 | 75 | 196 | 0.0 | 0.0 | 0.00 | 0.04 | 0.04 | 100 | 1018.9 |
| 20260903121105 | 75 | 196 | 0.0 | 0.0 | 0.00 | 0.04 | 0.04 | 100 | 1018.8 |
| 20260903120609 | 74 | 196 | 0.0 | 0.0 | 0.00 | 0.04 | 0.04 | 100 | 1018.8 |
| 20260903120105 | 74 | 196 | 0.0 | 0.0 | 0.00 | 0.04 | 0.04 | 100 | 1018.8 |
| 20260903114106 | 74 | 196 | 0.0 | 0.0 | 0.00 | 0.04 | 0.04 | 100 | 1018.7 |
| 20260903113608 | 74 | 196 | 0.0 | 0.0 | 0.00 | 0.04 | 0.04 | 100 | 1018.5 |
| 20260903113109 | 75 | 196 | 0.0 | 0.0 | 0.00 | 0.04 | 0.04 | 100 | 1018.4 |
| 20260903112107 | 74 | 196 | 0.0 | 1.0 | 0.00 | 0.04 | 0.04 | 100 | 1018.4 |
| 20260903111607 | 75 | 196 | 0.0 | 1.0 | 0.00 | 0.04 | 0.04 | 100 | 1018.1 |
| 20260903111109 | 75 | 196 | 0.0 | 0.0 | 0.00 | 0.04 | 0.04 | 100 | 1018.3 |
| 20260903110606 | 75 | 196 | 0.0 | 0.0 | 0.01 | 0.04 | 0.04 | 100 | 1018.2 |
| 20260903110105 | 75 | 196 | 0.0 | 0.0 | 0.01 | 0.04 | 0.04 | 100 | 1018.1 |
| 20260903105609 | 75 | 196 | 0.0 | 0.0 | 0.01 | 0.04 | 0.04 | 100 | 1018.2 |
| 20260903105107 | 75 | 196 | 0.0 | 0.0 | 0.01 | 0.04 | 0.04 | 100 | 1018.1 |
| 20260903103602 | 75 | 196 | 0.0 | 1.0 | 0.01 | 0.04 | 0.04 | 100 | 1018.1 |
| 20260903103103 | 75 | 196 | 1.0 | 2.0 | 0.01 | 0.04 | 0.04 | 100 | 1018.1 |
| 20260903102102 | 75 | 192 | 1.0 | 2.0 | 0.01 | 0.04 | 0.04 | 100 | 1018.0 |
| 20260903101056 | 75 | 192 | 0.0 | 0.0 | 0.01 | 0.04 | 0.03 | 100 | 1017.5 |
| 20260903100552 | 75 | 192 | 0.0 | 0.0 | 0.00 | 0.03 | 0.03 | 100 | 1017.4 |
| 20260903100044 | 75 | 192 | 0.0 | 0.0 | 0.00 | 0.03 | 0.03 | 100 | 1017.4 |
| 20260903095541 | 74 | 192 | 0.0 | 0.0 | 0.00 | 0.03 | 0.03 | 100 | 1017.5 |
| 20260903095045 | 75 | 192 | 0.0 | 0.0 | 0.00 | 0.03 | 0.03 | 100 | 1017.4 |
| 20260903094539 | 75 | 192 | 0.0 | 0.0 | 0.00 | 0.03 | 0.03 | 100 | 1017.5 |
| 20260903094035 | 75 | 192 | 0.0 | 0.0 | 0.00 | 0.03 | 0.03 | 100 | 1017.5 |
| 20260903093541 | 75 | 192 | 0.0 | 0.0 | 0.00 | 0.03 | 0.03 | 100 | 1017.4 |
| 20260903093042 | 75 | 192 | 0.0 | 0.0 | 0.01 | 0.03 | 0.03 | 100 | 1017.2 |
| 20260903092535 | 75 | 192 | 0.0 | 0.0 | 0.01 | 0.03 | 0.03 | 100 | 1017.3 |
| 20260903092034 | 75 | 192 | 0.0 | 0.0 | 0.01 | 0.03 | 0.03 | 100 | 1017.5 |
| 20260903091533 | 75 | 192 | 0.0 | 0.0 | 0.02 | 0.03 | 0.03 | 100 | 1017.4 |
| 20260903091034 | 75 | 192 | 0.0 | 0.0 | 0.03 | 0.03 | 0.03 | 100 | 1017.3 |
| 20260903090535 | 75 | 192 | 0.0 | 0.0 | 0.03 | 0.03 | 0.03 | 100 | 1017.2 |
| 20260903090031 | 75 | 192 | 0.0 | 0.0 | 0.03 | 0.03 | 0.03 | 100 | 1017.2 |
| 20260903085532 | 75 | 192 | 0.0 | 0.0 | 0.03 | 0.03 | 0.03 | 100 | 1017.2 |
| 20260903084534 | 75 | 192 | 0.0 | 0.0 | 0.03 | 0.03 | 0.03 | 100 | 1017.5 |
| 20260903084035 | 75 | 192 | 0.0 | 0.0 | 0.03 | 0.03 | 0.03 | 100 | 1017.7 |
| 20260903083537 | 75 | 192 | 0.0 | 1.0 | 0.03 | 0.03 | 0.03 | 100 | 1017.7 |
| 20260903083033 | 75 | 192 | 0.0 | 1.0 | 0.02 | 0.02 | 0.02 | 100 | 1017.9 |
| 20260903082524 | 75 | 192 | 0.0 | 0.0 | 0.02 | 0.02 | 0.02 | 100 | 1017.6 |
| 20260903082030 | 75 | 192 | 0.0 | 1.0 | 0.02 | 0.02 | 0.02 | 100 | 1017.4 |
| 20260903081523 | 75 | 192 | 0.0 | 1.0 | 0.01 | 0.01 | 0.01 | 100 | 1017.4 |
| 20260903081021 | 75 | 192 | 0.0 | 2.0 | 0.00 | 0.00 | 0.00 | 100 | 1017.8 |
| 20260903080021 | 75 | 192 | 1.0 | 2.0 | 0.00 | 0.00 | 0.00 | 100 | 1018.2 |
| 20260903075022 | 75 | 196 | 0.0 | 2.0 | 0.00 | 0.00 | 0.00 | 100 | 1018.2 |
| 20260903074517 | 75 | 204 | 0.0 | 1.0 | 0.00 | 0.00 | 0.00 | 100 | 1017.9 |
| 20260903074020 | 75 | 204 | 1.0 | 1.0 | 0.00 | 0.00 | 0.00 | 100 | 1017.7 |
| 20260903073516 | 75 | 204 | 0.0 | 1.0 | 0.00 | 0.00 | 0.00 | 100 | 1017.6 |
| 20260903072518 | 75 | 204 | 0.0 | 0.0 | 0.00 | 0.00 | 0.00 | 100 | 1017.0 |
| 20260903072010 | 75 | 204 | 0.0 | 0.0 | 0.00 | 0.00 | 0.00 | 100 | 1016.7 |
| 20260903070506 | 75 | 204 | 0.0 | 1.0 | 0.00 | 0.00 | 0.00 | 100 | 1016.7 |
| 20260903070036 | 74 | 204 | 0.0 | 0.0 | 0.00 | 0.00 | 0.00 | 100 | 1016.5 |
| 20260903065006 | 74 | 204 | 0.0 | 0.0 | 0.00 | 0.00 | 0.00 | 100 | 1016.5 |
| 20260903064506 | 74 | 204 | 0.0 | 0.0 | 0.00 | 0.00 | 0.00 | 100 | 1016.7 |
| 20260903064002 | 74 | 204 | 0.0 | 0.0 | 0.00 | 0.00 | 0.00 | 100 | 1016.8 |
| 20260903063458 | 74 | 204 | 0.0 | 0.0 | 0.00 | 0.00 | 0.00 | 100 | 1016.9 |
| 20260903062455 | 74 | 204 | 0.0 | 0.0 | 0.00 | 0.00 | 0.00 | 99 | 1016.2 |
| 20260903061950 | 74 | 204 | 0.0 | 0.0 | 0.00 | 0.00 | 0.00 | 99 | 1016.2 |
| 20260903061447 | 74 | 204 | 0.0 | 0.0 | 0.00 | 0.00 | 0.00 | 99 | 1016.7 |
| 20260903060946 | 74 | 204 | 0.0 | 0.0 | 0.00 | 0.00 | 0.00 | 99 | 1016.9 |
| 20260903055946 | 74 | 204 | 0.0 | 0.0 | 0.00 | 0.00 | 0.00 | 99 | 1017.1 |
| 20260903055447 | 74 | 204 | 0.0 | 0.0 | 0.00 | 0.00 | 0.00 | 99 | 1017.1 |
| 20260903054944 | 74 | 204 | 0.0 | 0.0 | 0.00 | 0.00 | 0.00 | 99 | 1017.3 |
| 20260903054440 | 74 | 204 | 0.0 | 0.0 | 0.00 | 0.00 | 0.00 | 99 | 1017.2 |
| 20260903053936 | 75 | 204 | 0.0 | 0.0 | 0.00 | 0.00 | 0.00 | 99 | 1017.4 |
| 20260903053438 | 75 | 204 | 0.0 | 0.0 | 0.00 | 0.01 | 0.00 | 99 | 1017.6 |
| 20260903052934 | 75 | 204 | 0.0 | 0.0 | 0.00 | 0.01 | 0.00 | 99 | 1017.5 |
| 20260903051935 | 75 | 204 | 0.0 | 0.0 | 0.00 | 0.01 | 0.00 | 99 | 1017.7 |
| 20260903051434 | 75 | 204 | 0.0 | 0.0 | 0.00 | 0.01 | 0.00 | 99 | 1017.7 |
| 20260903050941 | 75 | 204 | 0.0 | 0.0 | 0.00 | 0.02 | 0.00 | 99 | 1017.7 |
| 20260903050437 | 75 | 204 | 0.0 | 0.0 | 0.00 | 0.04 | 0.00 | 99 | 1018.0 |
| 20260903045933 | 75 | 204 | 0.0 | 0.0 | 0.00 | 0.13 | 0.00 | 99 | 1017.8 |
| 20260903045430 | 75 | 204 | 0.0 | 0.0 | 0.00 | 0.45 | 0.00 | 99 | 1017.6 |
| 20260903044932 | 75 | 204 | 0.0 | 0.0 | 0.00 | 0.67 | 0.00 | 99 | 1017.6 |
| 20260903044428 | 75 | 204 | 0.0 | 0.0 | 0.00 | 0.89 | 0.00 | 99 | 1017.5 |
| 20260903043929 | 75 | 204 | 0.0 | 0.0 | 0.00 | 0.95 | 0.00 | 99 | 1017.4 |
| 20260903042926 | 75 | 204 | 0.0 | 0.0 | 0.00 | 0.95 | 0.00 | 99 | 1017.8 |
| 20260903042420 | 75 | 204 | 0.0 | 0.0 | 0.00 | 0.95 | 0.00 | 99 | 1018.0 |
| 20260903041924 | 75 | 204 | 0.0 | 0.0 | 0.00 | 0.95 | 0.00 | 99 | 1018.1 |
| 20260903041419 | 75 | 204 | 0.0 | 0.0 | 0.00 | 0.95 | 0.00 | 99 | 1018.2 |
| 20260903040918 | 75 | 204 | 0.0 | 0.0 | 0.00 | 0.95 | 0.00 | 99 | 1018.1 |
| 20260903040415 | 75 | 204 | 0.0 | 0.0 | 0.00 | 0.95 | 0.00 | 99 | 1018.0 |
| 20260903035917 | 75 | 204 | 0.0 | 0.0 | 0.00 | 0.95 | 0.95 | 99 | 1018.0 |
| 20260903035422 | 75 | 204 | 0.0 | 0.0 | 0.00 | 0.96 | 0.95 | 99 | 1017.9 |
| 20260903034918 | 75 | 204 | 0.0 | 0.0 | 0.00 | 0.96 | 0.95 | 99 | 1018.0 |
| 20260903034419 | 75 | 204 | 0.0 | 0.0 | 0.00 | 0.96 | 0.95 | 99 | 1017.9 |
| 20260903033916 | 75 | 204 | 0.0 | 0.0 | 0.00 | 0.97 | 0.95 | 99 | 1017.7 |
| 20260903033417 | 75 | 204 | 0.0 | 0.0 | 0.00 | 0.97 | 0.95 | 99 | 1017.7 |
| 20260903032920 | 75 | 204 | 0.0 | 0.0 | 0.00 | 0.99 | 0.95 | 99 | 1017.9 |
| 20260903032417 | 75 | 204 | 0.0 | 0.0 | 0.00 | 1.01 | 0.95 | 99 | 1017.9 |
| 20260903031916 | 75 | 204 | 0.0 | 0.0 | 0.00 | 1.01 | 0.95 | 99 | 1018.2 |
| 20260903031419 | 75 | 204 | 0.0 | 0.0 | 0.00 | 1.03 | 0.95 | 99 | 1018.0 |
| 20260903030916 | 75 | 204 | 0.0 | 0.0 | 0.00 | 1.03 | 0.95 | 99 | 1017.9 |
| 20260903025911 | 75 | 204 | 0.0 | 0.0 | 0.00 | 1.03 | 0.95 | 98 | 1018.1 |
| 20260903025416 | 75 | 204 | 0.0 | 0.0 | 0.00 | 1.03 | 0.95 | 98 | 1018.1 |
| 20260903024907 | 75 | 204 | 0.0 | 0.0 | 0.00 | 1.03 | 0.95 | 98 | 1018.2 |
| 20260903024423 | 75 | 204 | 0.0 | 0.0 | 0.00 | 1.03 | 0.95 | 98 | 1018.2 |
| 20260903022912 | 75 | 204 | 0.0 | 0.0 | 0.00 | 1.03 | 0.95 | 98 | 1017.9 |
| 20260903022413 | 75 | 204 | 0.0 | 0.0 | 0.00 | 1.03 | 0.95 | 98 | 1017.8 |
| 20260903021912 | 75 | 204 | 0.0 | 0.0 | 0.00 | 1.03 | 0.95 | 98 | 1017.8 |
| 20260903020404 | 75 | 204 | 0.0 | 0.0 | 0.00 | 1.03 | 0.95 | 98 | 1017.8 |
| 20260903015404 | 75 | 204 | 0.0 | 0.0 | 0.00 | 1.03 | 0.95 | 98 | 1018.0 |
| 20260903014900 | 75 | 204 | 0.0 | 0.0 | 0.00 | 1.03 | 0.95 | 98 | 1018.0 |
| 20260903013900 | 75 | 204 | 0.0 | 0.0 | 0.00 | 1.03 | 0.95 | 98 | 1018.0 |
| 20260903013357 | 75 | 204 | 0.0 | 0.0 | 0.00 | 1.03 | 0.95 | 98 | 1018.0 |
| 20260903011851 | 75 | 204 | 0.0 | 0.0 | 0.00 | 1.03 | 0.95 | 98 | 1018.1 |
| 20260903011352 | 75 | 204 | 0.0 | 0.0 | 0.00 | 1.03 | 0.95 | 98 | 1018.3 |
| 20260903010847 | 75 | 204 | 0.0 | 0.0 | 0.00 | 1.03 | 0.95 | 98 | 1018.4 |
| 20260903005342 | 75 | 204 | 0.0 | 0.0 | 0.00 | 1.03 | 0.95 | 97 | 1018.2 |
| 20260903004846 | 75 | 204 | 0.0 | 0.0 | 0.00 | 1.03 | 0.95 | 97 | 1018.1 |
| 20260903003834 | 76 | 204 | 0.0 | 0.0 | 0.00 | 1.03 | 0.95 | 97 | 1018.0 |
| 20260903002837 | 76 | 204 | 0.0 | 0.0 | 0.00 | 1.03 | 0.95 | 97 | 1017.8 |
| 20260903002338 | 76 | 204 | 0.0 | 0.0 | 0.00 | 1.03 | 0.95 | 97 | 1017.8 |
| 20260903001833 | 76 | 204 | 0.0 | 0.0 | 0.00 | 1.03 | 0.95 | 97 | 1017.8 |
| 20260903001337 | 76 | 204 | 0.0 | 0.0 | 0.00 | 1.03 | 0.95 | 97 | 1017.8 |
| 20260903000333 | 76 | 204 | 0.0 | 0.0 | 0.00 | 1.03 | 0.95 | 97 | 1017.9 |
| 20260902235835 | 76 | 204 | 0.0 | 1.0 | 0.00 | 1.03 | 0.95 | 97 | 1017.8 |
| 20260902235332 | 76 | 204 | 0.0 | 1.0 | 0.00 | 1.03 | 0.95 | 97 | 1017.6 |
| 20260902234832 | 76 | 204 | 0.0 | 1.0 | 0.00 | 1.03 | 0.95 | 97 | 1017.6 |
| 20260902233831 | 76 | 204 | 0.0 | 0.0 | 0.00 | 1.03 | 0.95 | 97 | 1017.9 |
| 20260902233333 | 76 | 204 | 0.0 | 0.0 | 0.00 | 1.03 | 0.95 | 97 | 1018.1 |
| 20260902232330 | 76 | 204 | 0.0 | 0.0 | 0.00 | 1.03 | 0.95 | 97 | 1017.9 |
| 20260902231837 | 76 | 204 | 0.0 | 1.0 | 0.00 | 1.03 | 0.95 | 97 | 1017.8 |
| 20260902231333 | 76 | 204 | 0.0 | 1.0 | 0.00 | 1.03 | 0.95 | 97 | 1017.8 |
| 20260902224830 | 76 | 204 | 0.0 | 0.0 | 0.00 | 1.03 | 0.95 | 97 | 1017.9 |
| 20260902223834 | 76 | 204 | 0.0 | 0.0 | 0.00 | 1.03 | 0.95 | 96 | 1017.8 |
| 20260902223331 | 76 | 204 | 0.0 | 1.0 | 0.00 | 1.03 | 0.95 | 97 | 1017.8 |
| 20260902222822 | 76 | 204 | 0.0 | 1.0 | 0.00 | 1.03 | 0.95 | 96 | 1017.9 |
| 20260902222316 | 76 | 204 | 0.0 | 1.0 | 0.00 | 1.03 | 0.95 | 96 | 1018.1 |
| 20260902221311 | 76 | 204 | 0.0 | 1.0 | 0.00 | 1.03 | 0.95 | 96 | 1018.5 |
| 20260902220811 | 76 | 204 | 0.0 | 1.0 | 0.00 | 1.03 | 0.95 | 96 | 1018.5 |
| 20260902220308 | 76 | 204 | 0.0 | 1.0 | 0.00 | 1.03 | 0.95 | 96 | 1018.5 |
| 20260902215306 | 76 | 204 | 0.0 | 1.0 | 0.00 | 1.03 | 0.95 | 96 | 1018.4 |
| 20260902214807 | 76 | 204 | 0.0 | 1.0 | 0.00 | 1.03 | 0.95 | 96 | 1018.4 |
| 20260902213809 | 76 | 204 | 0.0 | 0.0 | 0.00 | 1.03 | 0.95 | 96 | 1018.3 |
| 20260902213305 | 76 | 204 | 0.0 | 1.0 | 0.00 | 1.03 | 0.95 | 96 | 1018.4 |
| 20260902212805 | 76 | 204 | 0.0 | 1.0 | 0.00 | 1.03 | 0.95 | 96 | 1018.5 |
| 20260902211804 | 76 | 204 | 0.0 | 1.0 | 0.00 | 1.03 | 0.95 | 97 | 1018.6 |
| 20260902210801 | 76 | 204 | 0.0 | 2.0 | 0.00 | 1.03 | 0.95 | 98 | 1017.8 |
| 20260902210305 | 76 | 204 | 1.0 | 2.0 | 0.00 | 1.03 | 0.95 | 97 | 1018.3 |
| 20260902205306 | 76 | 212 | 0.0 | 2.0 | 0.00 | 1.03 | 0.95 | 97 | 1017.4 |
| 20260902204806 | 75 | 211 | 0.0 | 2.0 | 0.00 | 1.03 | 0.95 | 97 | 1017.3 |
| 20260902204304 | 75 | 211 | 0.0 | 1.0 | 0.00 | 1.03 | 0.95 | 97 | 1016.7 |
| 20260902203804 | 76 | 211 | 0.0 | 1.0 | 0.00 | 1.03 | 0.95 | 97 | 1016.6 |
| 20260902203302 | 75 | 211 | 0.0 | 1.0 | 0.00 | 1.03 | 0.95 | 97 | 1016.7 |
| 20260902202805 | 75 | 211 | 0.0 | 1.0 | 0.00 | 1.03 | 0.95 | 97 | 1016.7 |
| 20260902202308 | 75 | 211 | 0.0 | 2.0 | 0.00 | 1.03 | 0.95 | 96 | 1016.6 |
| 20260902201302 | 76 | 206 | 1.0 | 2.0 | 0.00 | 1.03 | 0.95 | 95 | 1016.4 |
| 20260902200803 | 76 | 206 | 0.0 | 2.0 | 0.00 | 1.03 | 0.95 | 95 | 1016.8 |
| 20260902200304 | 76 | 205 | 0.0 | 2.0 | 0.00 | 1.03 | 0.95 | 94 | 1017.1 |
| 20260902195803 | 76 | 204 | 0.0 | 2.0 | 0.00 | 1.03 | 0.95 | 94 | 1017.4 |
| 20260902195306 | 76 | 204 | 0.0 | 3.0 | 0.00 | 1.03 | 0.95 | 94 | 1018.1 |
| 20260902193802 | 76 | 198 | 1.0 | 2.0 | 0.00 | 1.03 | 0.95 | 93 | 1019.5 |
| 20260902193307 | 76 | 198 | 1.0 | 2.0 | 0.00 | 1.03 | 0.95 | 93 | 1020.3 |
| 20260902191804 | 77 | 200 | 0.0 | 3.0 | 0.00 | 1.03 | 0.95 | 92 | 1020.2 |
| 20260902191305 | 77 | 5 | 0.0 | 2.0 | 0.00 | 1.03 | 0.95 | 91 | 1019.7 |
| 20260902190803 | 77 | 5 | 1.0 | 2.0 | 0.00 | 1.03 | 0.95 | 91 | 1019.3 |
| 20260902190306 | 77 | 5 | 1.0 | 2.0 | 0.00 | 1.03 | 0.95 | 91 | 1019.5 |
| 20260902185808 | 78 | 5 | 1.0 | 2.0 | 0.00 | 1.03 | 0.95 | 91 | 1020.0 |
| 20260902185301 | 78 | 5 | 1.0 | 2.0 | 0.00 | 1.03 | 0.95 | 91 | 1020.0 |
| 20260902184801 | 78 | 9 | 1.0 | 2.0 | 0.00 | 1.03 | 0.95 | 91 | 1019.8 |
| 20260902184307 | 78 | 9 | 0.0 | 2.0 | 0.00 | 1.03 | 0.95 | 91 | 1019.5 |
| 20260902183757 | 78 | 0 | 0.0 | 2.0 | 0.00 | 1.03 | 0.95 | 91 | 1019.6 |
| 20260902183257 | 78 | 0 | 0.0 | 2.0 | 0.00 | 1.03 | 0.95 | 92 | 1019.6 |
| 20260902181757 | 78 | 0 | 0.0 | 1.0 | 0.00 | 1.03 | 0.95 | 92 | 1020.0 |
| 20260902181251 | 78 | 0 | 0.0 | 2.0 | 0.00 | 1.03 | 0.95 | 92 | 1020.0 |
| 20260902180245 | 78 | 355 | 0.0 | 2.0 | 0.00 | 1.03 | 0.95 | 91 | 1020.0 |
| 20260902175249 | 78 | 355 | 0.0 | 2.0 | 0.00 | 1.03 | 0.95 | 91 | 1019.8 |
| 20260902174748 | 78 | 345 | 0.0 | 2.0 | 0.00 | 1.03 | 0.95 | 91 | 1020.1 |
| 20260902173749 | 78 | 344 | 0.0 | 2.0 | 0.00 | 1.03 | 0.95 | 91 | 1020.0 |
| 20260902173244 | 78 | 350 | 0.0 | 2.0 | 0.00 | 1.03 | 0.95 | 92 | 1019.8 |
| 20260902172741 | 78 | 350 | 0.0 | 2.0 | 0.00 | 1.03 | 0.95 | 92 | 1019.8 |
| 20260902172248 | 78 | 350 | 0.0 | 2.0 | 0.00 | 1.03 | 0.95 | 92 | 1019.7 |
| 20260902171745 | 77 | 350 | 0.0 | 2.0 | 0.00 | 1.03 | 0.95 | 92 | 1019.7 |
| 20260902171243 | 78 | 350 | 0.0 | 2.0 | 0.00 | 1.03 | 0.95 | 92 | 1019.8 |
| 20260902170753 | 78 | 355 | 0.0 | 2.0 | 0.00 | 1.03 | 0.95 | 93 | 1019.8 |
| 20260902170245 | 78 | 5 | 0.0 | 2.0 | 0.00 | 1.03 | 0.95 | 92 | 1019.6 |
| 20260902165751 | 78 | 0 | 0.0 | 2.0 | 0.00 | 1.03 | 0.95 | 91 | 1019.4 |
| 20260902165242 | 78 | 5 | 1.0 | 2.0 | 0.00 | 1.03 | 0.95 | 91 | 1019.3 |
| 20260902164747 | 78 | 5 | 1.0 | 2.0 | 0.00 | 1.03 | 0.95 | 92 | 1019.4 |
| 20260902164243 | 78 | 5 | 1.0 | 2.0 | 0.00 | 1.03 | 0.95 | 92 | 1019.5 |
| 20260902163744 | 78 | 5 | 1.0 | 2.0 | 0.00 | 1.03 | 0.95 | 92 | 1019.3 |
| 20260902163247 | 78 | 5 | 1.0 | 2.0 | 0.00 | 1.03 | 0.95 | 91 | 1019.3 |
| 20260902162243 | 79 | 5 | 0.0 | 2.0 | 0.00 | 1.03 | 0.95 | 91 | 1019.3 |
| 20260902161743 | 79 | 0 | 1.0 | 2.0 | 0.00 | 1.03 | 0.95 | 90 | 1019.4 |
| 20260902160243 | 78 | 0 | 1.0 | 2.0 | 0.00 | 1.03 | 0.95 | 90 | 1019.2 |
| 20260902155744 | 78 | 0 | 1.0 | 2.0 | 0.00 | 1.03 | 0.95 | 90 | 1019.3 |
| 20260902155244 | 78 | 0 | 1.0 | 2.0 | 0.00 | 1.03 | 0.95 | 92 | 1019.3 |
| 20260902154738 | 78 | 5 | 1.0 | 2.0 | 0.00 | 1.03 | 0.95 | 91 | 1019.4 |
| 20260902154243 | 78 | 346 | 1.0 | 2.0 | 0.00 | 1.03 | 0.95 | 93 | 1019.5 |